Flag for India Weather past 2 weeks in Jalpaiguri, West Bengal, India

Now
81 °F

Haze.


Feels Like: 85 °F
Forecast: 67 / 87 °F
Wind: No wind

Location: Varanasi / Babatpur

Current Time: Oct 21, 2014 at 7:18:18 PM

Latest Report: Oct 21, 2014 at 6:00 PM


Visibility: 2 mi

Pressure: 29.92 "Hg

Humidity: 74%

Dew point: 72 °F

Location of JalpaiguriLocation

Historic Weather in Jalpaiguri — Graph

°F

Jalpaiguri temperature yesterday

Maximum temperature yesterday: 88 °F (at 2:00 PM)
Minimum temperature yesterday: 66 °F (at 5:00 AM)
Average temperature yesterday: 78 °F

Past Weeks' High & Low Weather Summary

 TemperatureHumidityPressure
High95 °F (Oct 8, 2:00 PM)100% (Oct 12, 6:00 AM)30.04 "Hg (Oct 12, 6:00 AM)
Low66 °F (Oct 20, 5:00 AM)46% (Oct 19, 12:00 PM)29.62 "Hg (Oct 14, 5:00 AM)
Average81 °F76%29.86 "Hg
* Reported Oct 6 6:00 PM — Oct 21 6:00 PM, Jalpaiguri, Weather by CustomWeather, © 2014

Note: Actual official high and low records may vary slightly from our data, if they occured in-between our weather recording intervals... More about our weather records

Advertising

Jalpaiguri weather history for previous 24 hours

 ConditionsComfort  
Time TempWeatherWind HumidityBarometerVisibility
6:00 PM
Oct 21
81 °FHaze.No wind74%29.92 "Hg2 mi
5:00 PM86 °FClear.No wind55%29.92 "Hg3 mi
4:00 PM86 °FHaze.No wind52%29.92 "Hg3 mi
3:00 PM86 °FHaze.5 mph49%29.92 "Hg3 mi
2:00 PM88 °FHaze.2 mph46%29.95 "Hg3 mi
1:00 PM88 °FHaze.2 mph52%29.98 "Hg2 mi
12:00 PM86 °FHaze.No wind52%30.01 "Hg2 mi
11:00 AM82 °FHaze.No wind58%30.01 "Hg2 mi
10:00 AM81 °FHaze.No wind66%30.04 "Hg2 mi
9:00 AM79 °FHaze.No wind74%30.04 "Hg2 mi
7:00 AM70 °FFog.No wind83%29.98 "Hg1 mi
5:00 AM68 °FFog.No wind94%29.92 "Hg1 mi
12:00 AM72 °FFog.No wind88%29.95 "Hg1 mi
11:00 PM
Oct 20
73 °FFog.No wind89%29.95 "Hg1 mi
10:00 PM75 °FHaze.No wind83%29.95 "Hg1 mi
9:00 PM77 °FHaze.No wind79%29.95 "Hg1 mi
8:00 PM77 °FHaze.No wind79%29.92 "Hg1 mi
7:00 PM77 °FHaze.No wind79%29.92 "Hg2 mi
Weather by CustomWeather, © 2014

See weather overviewHow to use our weather pages